Location: Deer Lodge Site
(39.6809°N, 119.9392°W)
Time: 05:34:06
(UTC-07:00)

Amateur Radio Satellites - All Passes

Search period start: 01 November 2014 05:04
Search period end: 02 November 2014 04:04
Location: Deer Lodge Site, 39.6809°N, 119.9392°W

Satellite Date Start Highest point End Downlink Frequencies (MHz)
Time Altitude Azimuth
Saudisat 1A 01 Nov 05:31:48 05:36:01 50° 117° (ESE) 05:40:17 436.775 MHz
Gurwin Techsat 1B 01 Nov 05:33:20 05:35:33 13° 300° (WNW) 05:37:45 435.225 FM
OPAL 01 Nov 05:38:19 05:43:24 68° 256° (WSW) 05:48:27 ?
TMSAT-1 01 Nov 05:38:36 05:41:29 15° 299° (WNW) 05:44:22 436.925 FM
RS-15 01 Nov 05:57:50 06:09:00 68° 54° (NE) 06:20:37 29.354 - 29.394 USB, Beacon 29.352 USB
STRAND 1 01 Nov 05:58:32 06:02:27 23° 65° (ENE) 06:06:23 ?
Uosat F 01 Nov 06:02:08 06:07:03 52° 288° (WNW) 06:11:55 435.120 FM
JAS-2 01 Nov 06:18:30 06:26:22 68° 101° (E) 06:33:53 435.800 - 435.900 CW/SSB, 435.910 FM
PANSAT 01 Nov 06:37:17 06:39:17 14° 188° (S) 06:41:17 not established
AO-7 01 Nov 06:40:04 06:47:40 41° 298° (WNW) 06:55:17 29.400 - 29.500 MHz
Hamsat 01 Nov 06:40:09 06:44:21 64° 101° (E) 06:48:34 145.90 MHz
Saudisat 1A 01 Nov 07:12:39 07:15:51 19° 315° (NW) 07:19:04 436.775 MHz
STRAND 1 01 Nov 07:36:27 07:41:19 43° 261° (W) 07:46:15 ?
MaSat-1 01 Nov 07:40:12 07:42:38 60° 63° (ENE) 07:44:57 437.345 MHz
JAS-2 01 Nov 08:04:25 08:10:41 27° 299° (WNW) 08:16:49 435.800 - 435.900 CW/SSB, 435.910 FM
RS-15 01 Nov 08:11:02 08:20:37 34° 254° (WSW) 08:30:35 29.354 - 29.394 USB, Beacon 29.352 USB
Hamsat 01 Nov 08:18:31 08:19:45 11° 296° (WNW) 08:20:59 145.90 MHz
SO-67 01 Nov 08:27:52 08:31:10 45° 285° (WNW) 08:34:27 435.3500 MHz FM
PCSat 01 Nov 09:43:47 09:45:39 12° 39° (NE) 09:47:31 145.825 MHz
KITSAT 1 01 Nov 09:49:45 09:56:25 30° 106° (ESE) 10:03:05 435.175 FM
HO-68 01 Nov 09:56:54 10:04:05 68° 103° (ESE) 10:11:12 435.675 MHz FM
ISS 01 Nov 09:57:07 10:00:25 71° 140° (SE) 10:03:44 145.800 FM
UKube-1 01 Nov 10:26:49 10:31:03 48° 100° (E) 10:35:15 145.840 MHz, 145.915 MHz
ZACube-1 01 Nov 10:38:15 10:41:45 25° 95° (E) 10:45:13 437.345 MHz
Oscar 11 01 Nov 11:00:51 11:05:09 68° 285° (WNW) 11:09:25 145.825 FM, Beacon 2401.500 USB
Sapphire 01 Nov 11:03:22 11:08:29 40° 55° (NE) 11:13:33 437.095 MHz 1200 baud AX-25 AFSK
SO-50 01 Nov 11:14:46 11:19:15 89° 121° (ESE) 11:23:54 436.795 FM
FUNcube-1 01 Nov 11:20:20 11:24:32 81° 102° (ESE) 11:28:40 145.950 - 145.970 MHz USB
PCSat 01 Nov 11:24:45 11:30:10 64° 59° (ENE) 11:35:32 145.825 MHz
ISS 01 Nov 11:34:53 11:37:24 20° 338° (NNW) 11:39:56 145.800 FM
KITSAT 1 01 Nov 11:43:19 11:51:17 61° 304° (NW) 11:59:17 435.175 FM
HO-68 01 Nov 11:45:41 11:51:09 24° 301° (WNW) 11:56:36 435.675 MHz FM
UOSAT-12 01 Nov 11:53:49 11:57:17 21° 111° (ESE) 12:00:48 437.025 FM, 437.400 FM
UKube-1 01 Nov 12:04:16 12:06:50 16° 296° (WNW) 12:09:23 145.840 MHz, 145.915 MHz
ZACube-1 01 Nov 12:14:41 12:18:03 24° 291° (WNW) 12:21:24 437.345 MHz
Oscar 19 01 Nov 12:32:24 12:35:53 19° 64° (ENE) 12:39:21 437.125 CW, 437.150 USB
Sapphire 01 Nov 12:47:08 12:51:42 28° 252° (WSW) 12:56:14 437.095 MHz 1200 baud AX-25 AFSK
SO-50 01 Nov 12:58:08 13:00:30 14° 321° (NW) 13:02:53 436.795 FM
PCSat 01 Nov 13:09:41 13:12:59 17° 256° (WSW) 13:16:17 145.825 MHz
AO-27 01 Nov 13:11:36 13:15:07 19° 63° (ENE) 13:18:38 436.795 MHz FM
ISS 01 Nov 13:14:16 13:15:07 11° 358° (N) 13:15:58 145.800 FM
Oscar 16 01 Nov 13:17:52 13:22:49 50° 72° (ENE) 13:27:47 437.025 USB, Beacon 2401.1428
UOSAT-12 01 Nov 13:32:42 13:37:07 43° 308° (NW) 13:41:38 437.025 FM, 437.400 FM
Gurwin Techsat 1B 01 Nov 13:34:08 13:37:15 16° 62° (ENE) 13:40:21 435.225 FM
TMSAT-1 01 Nov 13:40:30 13:42:56 13° 60° (ENE) 13:45:22 436.925 FM
KITSAT 1 01 Nov 13:43:28 13:48:31 17° 328° (NNW) 13:53:35 435.175 FM
AO-Echo 01 Nov 13:43:29 13:48:13 44° 71° (ENE) 13:53:07 ?
JAS-1B 01 Nov 13:44:42 13:50:26 79° 74° (ENE) 13:56:11 435.800 - 435.900 CW/SSB
Uribyol 2 01 Nov 13:52:57 13:57:55 46° 71° (ENE) 14:02:53 436.500 FM
AO-7 01 Nov 13:59:10 14:02:03 12° 45° (NE) 14:04:55 29.400 - 29.500 MHz
Saudisat 1A 01 Nov 13:59:15 14:03:16 33° 51° (NE) 14:07:16 436.775 MHz
ITAMSAT 1 01 Nov 14:01:08 14:06:10 51° 71° (ENE) 14:11:14 435.822 SSB
Oscar 19 01 Nov 14:09:47 14:14:47 53° 260° (W) 14:19:49 437.125 CW, 437.150 USB
AO-27 01 Nov 14:49:03 14:54:09 56° 259° (W) 14:59:19 436.795 MHz FM
ISS 01 Nov 14:50:41 14:52:54 16° 19° (NNE) 14:55:08 145.800 FM
Oscar 16 01 Nov 14:58:55 15:02:26 18° 267° (W) 15:05:57 437.025 USB, Beacon 2401.1428
Gurwin Techsat 1B 01 Nov 15:11:21 15:16:37 68° 258° (WSW) 15:21:56 435.225 FM
TMSAT-1 01 Nov 15:16:49 15:22:08 81° 257° (WSW) 15:27:28 436.925 FM
AO-Echo 01 Nov 15:23:29 15:27:11 21° 267° (W) 15:31:00 ?
Uribyol 2 01 Nov 15:33:42 15:37:34 21° 266° (W) 15:41:28 436.500 FM
Uosat F 01 Nov 15:37:05 15:40:59 23° 65° (ENE) 15:44:53 435.120 FM
Saudisat 1A 01 Nov 15:39:02 15:42:42 26° 247° (WSW) 15:46:21 436.775 MHz
JAS-1B 01 Nov 15:40:28 15:41:54 11° 271° (W) 15:43:20 435.800 - 435.900 CW/SSB
ITAMSAT 1 01 Nov 15:42:21 15:45:56 19° 267° (W) 15:49:32 435.822 SSB
AO-7 01 Nov 15:45:02 15:53:02 57° 66° (ENE) 16:01:03 29.400 - 29.500 MHz
ISS 01 Nov 16:26:43 16:30:03 75° 37° (NE) 16:33:23 145.800 FM
JAS-2 01 Nov 16:30:20 16:35:37 27° 61° (ENE) 16:41:23 435.800 - 435.900 CW/SSB, 435.910 FM
AO-40 01 Nov 17:03:44 22:17:59 41° 187° (S) 02:57:10 Beacon 2401.320
Uosat F 01 Nov 17:14:46 17:19:29 41° 261° (W) 17:24:15 435.120 FM
Hamsat 01 Nov 17:32:38 17:36:32 40° 72° (ENE) 17:40:27 145.90 MHz
AO-7 01 Nov 17:39:01 17:46:07 31° 263° (W) 17:53:16 29.400 - 29.500 MHz
KITSAT 1 01 Nov 17:43:05 17:48:00 17° 31° (NNE) 17:52:54 435.175 FM
OPAL 01 Nov 17:49:21 17:53:46 32° 99° (E) 17:58:10 ?
ISS 01 Nov 18:05:16 18:06:18 11° 232° (SW) 18:07:19 145.800 FM
SO-50 01 Nov 18:08:49 18:10:21 11° 37° (NE) 18:11:52 436.795 FM
JAS-2 01 Nov 18:13:59 18:20:06 55° 262° (W) 18:27:05 435.800 - 435.900 CW/SSB, 435.910 FM
SO-67 01 Nov 18:59:13 19:02:29 43° 74° (ENE) 19:05:47 435.3500 MHz FM
Hamsat 01 Nov 19:10:08 19:12:39 16° 268° (W) 19:15:10 145.90 MHz
OPAL 01 Nov 19:28:21 19:32:32 28° 295° (WNW) 19:36:42 ?
KITSAT 1 01 Nov 19:37:21 19:45:19 59° 55° (NE) 19:53:14 435.175 FM
SO-50 01 Nov 19:47:01 19:51:51 64° 56° (NE) 19:56:42 436.795 FM
STRAND 1 01 Nov 19:47:35 19:52:43 68° 102° (ESE) 19:57:49 ?
RS-15 01 Nov 20:20:46 20:30:58 46° 109° (ESE) 20:41:03 29.354 - 29.394 USB, Beacon 29.352 USB
UOSAT-12 01 Nov 20:23:42 20:27:00 18° 43° (NE) 20:30:16 437.025 FM, 437.400 FM
HO-68 01 Nov 20:24:24 20:31:09 47° 66° (ENE) 20:37:56 435.675 MHz FM
MaSat-1 01 Nov 21:14:03 21:17:03 22° 109° (ESE) 21:19:52 437.345 MHz
UKube-1 01 Nov 21:21:24 21:25:25 38° 71° (ENE) 21:29:28 145.840 MHz, 145.915 MHz
STRAND 1 01 Nov 21:28:28 21:31:19 15° 299° (WNW) 21:34:09 ?
SO-50 01 Nov 21:29:07 21:31:53 15° 252° (WSW) 21:34:40 436.795 FM
KITSAT 1 01 Nov 21:33:27 21:40:14 31° 254° (WSW) 21:47:01 435.175 FM
ZACube-1 01 Nov 21:34:07 21:37:31 22° 68° (ENE) 21:40:52 437.345 MHz
Oscar 10/S400 01 Nov 21:44:25 17:17:33 62° 176° (S) 00:30:47 145.825 - 145.975 CW/USB, Beacon 145.810 USB
Oscar 11 01 Nov 21:54:43 21:59:01 83° 76° (ENE) 22:03:21 145.825 FM, Beacon 2401.500 USB
UOSAT-12 01 Nov 22:02:55 22:07:35 63° 242° (WSW) 22:12:08 437.025 FM, 437.400 FM
HO-68 01 Nov 22:12:40 22:18:58 33° 263° (W) 22:25:19 435.675 MHz FM
FUNcube-1 01 Nov 22:15:21 22:19:48 59° 74° (ENE) 22:24:09 145.950 - 145.970 MHz USB
RS-15 01 Nov 22:32:30 22:43:06 52° 311° (NW) 22:53:46 29.354 - 29.394 USB, Beacon 29.352 USB
MaSat-1 01 Nov 22:49:10 22:52:18 24° 300° (WNW) 22:55:12 437.345 MHz
UKube-1 01 Nov 22:58:43 23:01:43 18° 266° (W) 23:04:45 145.840 MHz, 145.915 MHz
ZACube-1 01 Nov 23:09:33 23:13:41 35° 263° (W) 23:17:46 437.345 MHz
FUNcube-1 01 Nov 23:54:37 23:56:29 12° 269° (W) 23:58:19 145.950 - 145.970 MHz USB
RS-15 02 Nov 00:51:15 00:58:53 21° 342° (NNW) 01:06:38 29.354 - 29.394 USB, Beacon 29.352 USB
JAS-1B 02 Nov 01:27:51 01:34:01 27° 95° (E) 01:41:00 435.800 - 435.900 CW/SSB
Oscar 16 02 Nov 01:31:21 01:34:54 19° 93° (E) 01:38:26 437.025 USB, Beacon 2401.1428
Sapphire 02 Nov 01:44:21 01:49:23 42° 111° (ESE) 01:54:29 437.095 MHz 1200 baud AX-25 AFSK
AO-Echo 02 Nov 01:52:45 01:56:01 16° 91° (E) 01:59:14 ?
PCSat 02 Nov 01:05:25 01:10:46 71° 115° (ESE) 01:16:11 145.825 MHz
Uribyol 2 02 Nov 01:07:41 01:11:02 17° 92° (E) 01:14:21 436.500 FM
ITAMSAT 1 02 Nov 01:15:49 01:19:32 19° 93° (E) 01:23:13 435.822 SSB
Oscar 19 02 Nov 01:22:03 01:27:07 58° 101° (E) 01:32:09 437.125 CW, 437.150 USB
AO-27 02 Nov 02:02:52 02:08:01 57° 101° (E) 02:13:07 436.795 MHz FM
RS-15 02 Nov 02:09:10 02:17:04 21° 20° (NNE) 02:25:07 29.354 - 29.394 USB, Beacon 29.352 USB
Oscar 16 02 Nov 02:09:34 02:14:30 49° 289° (WNW) 02:19:25 437.025 USB, Beacon 2401.1428
JAS-1B 02 Nov 02:17:36 02:24:46 63° 288° (WNW) 02:33:18 435.800 - 435.900 CW/SSB
Sapphire 02 Nov 02:28:19 02:32:56 28° 309° (NW) 02:37:36 437.095 MHz 1200 baud AX-25 AFSK
Gurwin Techsat 1B 02 Nov 02:28:27 02:33:39 52° 100° (E) 02:38:49 435.225 FM
AO-Echo 02 Nov 02:29:54 02:35:09 60° 287° (WNW) 02:40:18 ?
TMSAT-1 02 Nov 02:33:42 02:38:46 43° 99° (E) 02:43:46 436.925 FM
Uribyol 2 02 Nov 02:45:45 02:50:50 55° 288° (WNW) 02:55:51 436.500 FM
AO-7 02 Nov 02:49:14 02:54:25 18° 91° (E) 02:59:34 29.400 - 29.500 MHz
PCSat 02 Nov 02:50:58 02:54:44 19° 314° (NW) 02:58:32 145.825 MHz
ITAMSAT 1 02 Nov 02:54:15 02:59:16 49° 289° (WNW) 03:04:14 435.822 SSB
Oscar 19 02 Nov 03:02:42 03:05:58 17° 297° (WNW) 03:09:14 437.125 CW, 437.150 USB
PANSAT 02 Nov 03:31:59 03:34:13 15° 176° (S) 03:36:27 not established
AO-27 02 Nov 03:43:35 03:47:03 18° 297° (WNW) 03:50:31 436.795 MHz FM
